Theta_e
338 337 335 335 333 332 332 331 330 330 330 329 328 326 325 325 326 327 329 330 330 329 329 328 328 328 328 328 328 328 328 329 329 330 331 331 332 334 333 332 337 335 332 331 332 333 331 331 331 331 331 329 329 329 328 328 328 329 329 329 329 327 327 327 328 327 327 327 327 327 327 327 327 327 327 327 327 327 327 327 327 327 327 327 327
338 337 336 334 333 332 332 330 330 329 330 330 328 327 325 325 326 327 329 330 329 330 329 328 328 328 328 329 329 329 329 330 330 331 331 331 333 336 335 336 336 335 334 333 334 333 332 331 331 332 330 330 328 328 329 329 329 329 329 328 329 329 329 328 328 329 328 327 327 327 327 327 327 327 327 327 327 327 327 327 327 327 327 327 327
336 336 336 334 332 331 331 329 329 328 330 330 328 328 326 325 326 327 329 330 329 330 329 328 328 329 330 328 329 329 330 330 331 332 332 331 332 333 334 333 332 334 335 337 334 332 331 331 331 331 330 330 330 331 330 330 329 328 329 328 328 327 327 327 327 327 327 327 327 327 327 327 327 327 327 327 327 327 326 327 327 327 327 327 326
334 334 334 333 332 331 330 329 330 327 329 328 328 328 326 326 328 329 331 330 328 328 329 328 328 329 328 329 329 330 330 331 332 331 331 331 330 331 334 336 335 335 334 335 334 331 331 331 331 330 330 331 331 331 330 329 328 328 328 327 327 327 327 327 327 326 326 327 328 328 328 328 328 327 327 327 327 327 326 326 326 326 326 326 326
334 334 335 332 332 331 330 330 329 328 328 328 329 327 329 329 329 330 329 328 328 327 328 328 328 328 328 328 330 330 330 331 331 331 331 330 330 330 332 335 335 335 335 332 334 332 332 332 332 331 332 332 331 330 330 329 329 329 328 329 328 328 329 328 328 328 328 328 328 328 328 328 328 327 327 327 327 327 326 326 326 326 325 326 326
334 333 333 331 331 331 330 330 329 328 328 329 328 328 328 329 329 329 330 328 327 327 327 327 328 329 329 329 329 329 330 330 331 330 330 330 329 330 330 330 330 331 334 334 336 335 336 334 333 333 332 332 332 331 331 330 330 330 329 329 329 329 328 328 329 329 329 329 329 328 328 329 329 328 327 327 327 327 327 326 326 326 326 326 326
334 333 332 331 331 331 330 331 330 329 328 328 329 328 328 328 329 328 326 326 327 327 327 327 328 328 328 329 329 330 330 330 330 330 330 329 330 329 329 330 330 331 332 333 338 338 337 336 333 333 333 333 333 332 331 332 333 332 332 331 330 330 330 330 330 330 330 330 330 330 329 329 328 328 328 328 328 327 327 327 327 326 326 326 326
334 333 332 331 331 331 332 332 331 330 328 329 329 328 328 329 329 328 325 325 326 326 327 327 327 327 328 329 330 330 330 330 330 329 329 330 330 329 329 330 330 334 335 332 334 338 337 337 337 336 334 334 333 333 333 334 334 334 333 333 332 331 331 331 331 331 331 331 331 331 331 330 329 329 328 329 328 328 327 327 327 326 326 325 325
334 333 332 331 330 331 332 332 332 330 329 330 329 329 329 329 328 329 328 325 325 325 326 327 327 328 328 328 328 329 329 329 329 328 329 328 327 329 329 330 334 334 331 331 333 335 336 337 337 336 336 335 334 334 334 334 335 335 334 334 334 334 333 333 333 332 332 332 332 332 331 331 330 330 330 329 329 329 328 328 327 326 325 326 326
333 333 332 332 331 331 331 331 332 331 330 330 329 329 329 330 327 327 327 326 325 325 325 326 327 327 327 327 327 328 328 329 330 330 328 328 328 328 328 329 330 330 330 330 331 332 333 334 335 335 336 334 335 334 334 334 333 334 334 334 333 333 333 333 334 333 333 333 333 332 332 332 330 331 330 329 329 330 329 328 327 326 325 325 326
334 333 332 332 331 330 330 331 331 331 331 329 328 328 329 329 328 327 327 327 326 326 326 327 326 326 326 327 328 328 329 329 329 329 329 328 330 330 328 328 328 329 329 329 330 329 329 328 329 330 332 334 334 333 332 334 333 333 333 333 334 333 333 333 333 333 334 333 333 333 332 331 331 330 330 330 330 330 329 329 328 326 326 326 327
333 332 332 332 331 330 330 331 331 331 330 328 328 328 328 328 328 327 326 327 328 328 328 327 327 326 326 327 328 328 328 329 328 327 327 329 331 330 329 328 328 328 328 328 328 327 327 328 330 329 330 331 333 332 331 330 332 332 332 333 334 333 331 333 333 335 334 334 333 333 332 332 332 331 330 330 330 330 330 327 326 326 326 327 329
333 332 331 334 332 331 330 331 331 331 330 329 329 329 329 329 328 328 326 325 326 329 328 329 326 324 326 325 326 328 329 329 328 328 328 327 326 326 327 328 327 327 328 327 328 328 328 327 327 328 329 329 331 332 333 332 332 333 332 333 333 334 334 333 335 335 334 333 333 331 331 332 332 331 331 331 330 329 328 328 327 327 328 329 329
333 332 332 332 331 329 330 331 331 331 331 330 329 330 329 328 328 326 328 326 325 328 328 327 323 321 320 321 323 326 327 328 327 328 329 328 326 325 326 327 327 327 328 328 327 328 328 327 327 328 328 328 328 330 332 334 334 331 333 331 333 332 333 334 335 335 334 333 331 330 330 330 331 332 331 330 330 329 329 329 329 329 328 328 328
333 333 332 331 331 330 330 329 328 330 328 328 329 328 328 328 328 326 325 327 327 328 327 325 322 324 324 320 316 316 321 324 327 327 328 328 328 327 326 327 327 328 327 327 327 327 328 328 328 328 328 328 328 330 332 332 334 333 332 332 333 334 334 335 335 335 333 332 330 329 329 329 332 331 332 331 331 330 330 330 329 327 326 326 326
332 333 332 331 330 330 329 329 329 330 328 327 326 327 327 328 327 327 326 323 325 325 327 324 325 322 315 315 316 317 313 317 320 324 327 327 327 327 327 326 326 326 326 327 327 328 328 327 328 328 329 330 331 331 331 333 332 331 330 330 333 334 334 334 334 333 333 330 330 328 329 329 330 331 332 332 331 330 330 328 327 325 325 325 325
332 332 332 331 330 329 328 329 329 330 329 328 327 327 328 328 328 327 326 325 323 325 326 325 325 325 320 315 312 312 313 318 320 320 325 325 326 326 327 326 326 325 325 325 326 328 328 327 327 328 329 329 329 329 329 331 334 335 333 332 333 334 332 332 332 331 330 329 328 327 328 329 331 331 332 331 330 330 329 327 326 325 324 324 324
331 332 332 331 329 328 329 330 330 330 329 329 329 328 326 326 328 327 326 327 326 324 323 326 326 323 320 319 319 314 313 319 319 313 323 325 325 326 327 327 325 325 324 325 326 327 327 326 326 327 328 328 327 326 328 329 331 330 331 332 327 330 330 331 329 329 330 329 327 327 329 331 331 331 331 330 330 329 328 326 325 324 324 323 323
331 331 331 332 330 328 329 330 330 330 330 329 328 327 328 328 329 327 327 326 326 323 323 323 325 324 323 322 322 319 321 320 315 316 313 320 324 324 325 327 325 325 325 326 326 327 327 327 327 326 326 325 324 324 326 328 329 330 330 327 324 321 322 325 330 330 330 329 328 328 329 331 331 330 330 330 329 328 326 325 325 324 323 323 323
331 331 331 331 330 329 329 329 329 329 330 329 329 328 327 329 329 328 327 327 326 324 324 324 321 322 323 322 320 320 321 320 322 317 316 313 316 324 325 324 324 325 325 325 326 327 326 326 326 324 324 322 321 321 321 322 323 325 326 322 322 321 320 320 319 321 327 329 329 328 327 328 329 329 329 327 326 325 325 324 323 323 322 322 322
332 331 330 331 332 329 329 329 329 329 330 329 329 328 328 327 327 327 326 326 326 326 325 323 323 321 319 316 319 319 318 319 320 318 317 314 315 317 318 322 323 323 322 323 325 326 327 326 325 324 323 320 319 318 319 320 321 322 324 319 320 320 320 317 314 314 316 327 328 328 327 326 326 327 327 326 324 324 322 321 321 321 321 321 322
331 331 330 330 330 330 330 330 329 330 330 329 328 328 328 328 328 328 327 327 326 326 325 325 324 323 323 319 317 316 317 318 317 317 319 319 315 316 318 318 317 320 321 323 324 325 326 326 324 323 322 319 318 318 317 318 319 319 320 318 320 319 320 318 312 315 316 320 327 326 326 326 326 325 324 324 324 322 320 320 320 320 321 321 321
330 330 330 330 330 330 329 329 330 331 330 328 327 328 328 328 328 328 327 327 326 326 325 325 325 323 322 321 321 320 319 316 317 317 316 315 317 317 318 320 319 318 321 322 324 325 326 325 322 321 320 319 317 317 316 318 319 318 319 318 319 320 319 314 311 313 317 321 323 324 325 325 325 325 324 324 323 321 321 321 320 320 319 319 319
329 328 328 329 329 329 330 329 329 330 329 328 327 329 329 329 328 327 327 327 327 326 325 324 324 323 323 322 322 322 320 319 320 320 319 318 318 317 317 319 319 319 320 321 324 324 325 324 322 321 319 318 317 316 317 318 319 319 320 318 318 317 319 318 313 313 312 317 320 323 324 325 324 324 324 322 323 322 322 321 320 320 319 319 319
327 327 328 328 329 328 328 328 328 329 329 328 328 328 329 329 328 327 327 326 326 326 325 324 324 323 323 322 322 322 321 320 321 320 318 319 319 317 318 320 317 317 319 321 320 323 324 323 321 320 318 317 316 316 316 317 319 319 317 318 316 315 317 321 320 315 313 313 316 321 324 324 323 323 323 323 322 322 323 322 316 313 316 318 317
327 327 328 328 329 329 329 328 329 328 328 328 328 328 328 328 328 327 326 327 327 326 326 325 324 325 325 322 321 322 321 320 321 320 319 319 318 318 317 318 318 317 317 318 313 320 318 322 320 319 317 316 316 315 316 316 318 317 316 317 316 314 315 318 321 317 314 313 313 317 320 322 323 323 323 324 323 320 316 311 311 311 308 309 313
326 327 327 328 328 328 328 328 328 328 328 327 328 328 328 328 328 327 327 327 326 326 325 324 324 323 323 324 323 322 321 321 321 321 321 321 320 319 318 314 314 316 317 313 312 319 318 311 318 317 317 316 315 315 314 315 316 317 316 317 317 313 313 315 319 318 313 311 309 309 310 312 313 314 315 314 312 311 313 314 312 308 309 310 314
325 325 325 326 327 327 327 328 328 328 328 328 328 327 326 327 326 327 326 327 326 325 325 324 324 324 324 324 323 323 322 322 322 322 322 322 321 321 320 318 314 311 313 314 312 314 313 315 310 315 316 315 314 314 314 314 316 316 315 314 316 315 310 311 315 316 313 311 309 307 306 306 307 308 309 310 313 314 316 315 312 310 309 313 317
325 326 326 326 326 326 326 327 327 327 328 328 327 327 327 327 326 325 325 326 326 325 325 324 324 324 324 323 324 324 322 322 322 322 322 321 321 322 321 320 319 315 312 312 313 312 311 312 315 312 315 314 314 313 314 313 315 315 313 313 313 314 311 311 310 310 310 309 308 307 306 307 308 309 313 315 315 315 314 311 311 310 311 315 316
326 326 326 326 326 328 326 326 326 326 327 326 326 326 326 326 326 326 326 326 325 324 324 325 323 324 323 322 323 323 323 323 323 322 322 322 321 321 321 321 321 318 316 313 313 312 310 308 312 312 310 313 312 312 313 312 313 313 311 311 311 312 309 309 308 305 306 307 305 305 304 305 308 311 314 314 314 313 310 310 309 309 312 315 315
325 325 325 325 325 326 326 325 324 325 326 325 326 326 326 326 325 324 324 325 325 324 323 324 323 323 322 322 322 323 322 323 322 322 322 322 322 321 321 321 320 319 317 316 313 314 310 311 309 308 310 311 312 312 312 311 313 312 310 310 309 309 310 310 307 306 306 306 303 303 305 306 306 308 310 313 313 312 311 312 310 311 314 316 311
325 325 325 324 324 325 325 325 323 324 325 325 326 326 326 325 324 323 323 324 324 323 322 323 323 323 323 322 322 323 322 322 322 321 321 321 322 321 321 320 319 318 318 316 314 314 309 311 312 306 310 311 311 311 311 310 312 311 310 309 309 309 312 311 306 306 306 305 304 305 310 311 307 309 311 312 312 312 312 311 311 313 313 311 308
325 325 324 324 324 324 323 322 321 322 324 324 325 325 325 324 324 324 323 324 324 323 323 322 323 323 323 323 322 322 323 323 322 321 321 321 321 321 321 320 318 316 318 315 314 308 305 306 308 306 308 311 309 311 310 310 311 311 309 308 308 309 309 309 308 304 304 304 302 302 303 304 304 309 308 307 309 309 308 306 308 309 308 307 306
325 325 324 323 323 323 322 322 322 322 323 324 324 324 324 323 322 323 323 324 324 323 322 323 323 323 323 323 322 322 322 324 322 321 321 320 320 320 319 319 318 315 318 316 313 310 306 305 307 306 307 310 310 309 311 309 309 310 308 307 306 307 307 307 305 306 303 303 302 301 302 302 303 303 303 303 303 304 305 304 303 302 305 303 302
325 325 324 323 323 323 322 322 322 322 323 323 323 324 324 323 322 322 323 324 324 323 322 323 323 323 322 323 322 322 322 322 322 322 321 321 322 320 320 319 318 316 314 316 313 310 307 304 306 305 306 307 310 308 309 310 310 309 308 307 307 306 307 306 304 303 301 302 301 301 301 301 301 302 301 302 302 302 303 303 303 302 301 301 301
324 324 324 323 323 322 322 322 322 322 323 323 323 324 324 323 323 322 322 323 323 323 323 323 323 323 323 322 322 321 322 322 320 321 321 321 321 321 320 320 320 317 316 314 316 314 308 306 304 304 305 307 306 304 308 308 308 308 308 307 306 306 306 306 304 303 302 301 301 301 302 302 300 300 300 300 301 301 301 301 302 302 301 301 301
323 323 323 323 322 322 322 322 322 321 322 323 323 323 323 323 323 322 322 322 323 323 324 323 324 323 322 323 322 321 321 322 319 320 321 320 321 321 321 320 319 319 317 314 313 313 309 309 307 304 306 305 304 303 307 305 305 307 307 307 306 306 306 306 305 304 303 301 301 301 301 300 300 300 299 299 300 300 300 301 301 302 302 301 301
322 323 322 322 322 322 322 322 322 321 321 322 323 323 322 321 322 322 322 322 322 323 323 323 324 323 324 323 322 322 322 322 320 320 320 321 320 321 321 320 320 319 319 315 312 310 311 310 309 304 304 305 303 303 304 306 305 304 304 306 305 305 305 305 305 305 305 304 304 304 303 301 301 300 301 300 299 299 299 300 300 301 302 301 301
322 322 322 322 322 322 322 322 321 321 320 321 322 322 321 320 320 321 321 321 321 321 321 322 323 323 324 324 322 322 322 323 322 320 319 320 320 321 321 321 321 319 317 314 310 309 309 308 305 306 304 304 305 304 302 304 303 303 304 304 304 305 306 306 306 305 305 305 303 300 301 302 302 303 301 300 300 300 300 300 300 301 301 301 300
322 321 321 321 321 321 321 321 321 319 318 319 319 320 320 319 319 319 320 320 320 320 320 320 321 320 321 321 321 321 322 322 322 320 320 321 321 320 320 321 320 319 318 314 309 308 307 307 306 304 304 304 304 303 301 301 301 301 302 303 302 303 304 306 306 306 307 306 306 305 302 301 301 302 300 301 301 301 301 301 301 301 301 300 299
321 321 321 321 319 317 316 316 314 315 316 317 317 317 317 317 317 317 318 319 319 319 317 316 317 317 315 315 316 317 322 322 315 314 315 317 320 320 318 319 318 318 315 311 309 306 305 306 305 304 304 303 303 303 301 301 301 303 304 304 303 304 305 305 306 306 306 307 307 306 306 307 305 306 305 305 305 303 303 302 303 303 302 300 299
322 321 320 318 317 315 312 311 310 311 312 310 311 309 311 316 315 316 316 317 318 317 316 315 314 314 314 315 320 320 315 312 309 307 306 308 314 320 319 318 318 317 314 309 307 306 306 304 305 304 303 303 302 304 303 304 305 304 303 303 302 303 305 305 307 308 308 307 307 307 308 308 307 307 306 306 307 308 307 307 306 304 302 299 299
320 319 318 314 314 313 312 310 308 308 307 306 300 299 302 306 314 315 315 314 315 316 316 316 313 311 310 310 312 313 310 308 305 298 298 300 303 307 308 311 316 319 316 313 309 307 305 305 304 302 303 303 303 304 304 304 305 305 303 303 303 304 304 303 304 307 308 308 307 306 308 310 308 307 307 307 308 309 308 307 302 301 300 299 299
317 317 316 314 312 311 310 309 308 306 304 300 295 296 298 300 307 314 314 314 314 315 316 314 311 310 308 307 308 310 310 306 305 303 300 296 295 296 296 295 296 297 305 316 315 310 308 305 302 304 303 303 303 303 303 304 305 304 304 303 304 304 303 303 303 304 309 307 308 306 308 309 308 308 308 308 309 310 308 304 300 299 299 299 299
314 314 314 312 309 308 308 306 305 303 302 295 294 296 297 299 301 308 314 315 315 314 314 312 309 307 306 306 306 305 310 310 308 304 304 303 298 296 297 298 297 294 292 296 302 314 312 309 306 304 304 303 303 303 305 306 306 306 304 303 304 304 305 305 305 305 308 307 308 306 306 309 307 307 307 309 310 310 309 302 300 299 299 299 299
311 310 309 308 306 306 306 305 303 302 301 297 294 296 297 297 299 305 313 313 312 311 310 308 307 306 306 307 306 305 306 308 308 308 307 306 304 304 302 302 302 301 298 296 295 298 304 309 308 309 309 306 310 310 308 306 307 307 305 305 305 304 304 305 308 308 309 307 310 308 305 309 308 307 306 309 310 309 309 305 300 299 299 299 298
306 305 305 304 303 303 303 303 302 300 298 295 295 295 296 298 300 303 310 307 305 302 301 301 301 301 302 303 304 305 306 308 310 309 308 305 303 301 300 300 300 300 300 301 303 306 308 310 310 308 306 307 307 307 306 306 310 310 311 311 308 308 308 307 309 308 309 308 309 308 307 310 304 307 308 310 310 308 309 303 299 298 298 298 298
300 300 300 301 301 300 300 300 301 300 299 294 294 295 297 298 300 306 304 302 301 299 299 298 298 299 299 301 302 302 304 307 304 300 302 304 301 300 299 299 299 300 300 298 294 297 303 305 306 305 304 302 299 302 303 305 307 307 308 308 309 308 309 309 310 306 309 306 307 307 305 306 304 306 309 307 305 309 310 307 299 298 298 298 297
297 297 297 297 298 298 299 299 300 299 298 295 294 295 296 297 300 303 301 300 299 298 298 299 299 298 298 297 298 299 300 301 298 296 297 299 301 300 299 298 299 299 299 301 296 294 294 294 294 293 294 294 295 295 295 295 300 304 308 308 306 304 306 307 303 304 307 305 305 305 306 306 305 305 307 307 306 308 310 307 302 297 296 297 297
296 297 297 297 298 297 297 297 299 298 297 295 293 295 296 297 300 301 300 298 297 296 296 296 297 298 300 301 298 296 297 297 293 294 295 300 300 299 299 298 298 298 299 300 302 300 296 295 295 294 295 295 296 296 296 296 296 302 309 306 304 303 303 303 305 303 304 304 304 304 304 306 304 303 305 308 307 305 304 303 301 300 297 297 296
297 297 298 297 297 297 297 297 299 297 297 296 293 293 294 296 300 300 299 297 295 295 295 295 296 296 296 296 296 296 296 294 291 292 293 298 299 299 298 297 297 297 297 299 301 301 302 302 301 301 300 300 302 302 301 296 297 300 304 304 305 305 303 302 301 302 302 303 304 304 305 306 307 307 305 306 306 309 303 301 302 301 301 301 301
Wind_Speed
6 5 4 4 4 4 4 3 3 2 2 2 1 3 6 5 4 5 5 6 5 5 5 5 5 5 6 6 6 5 5 4 4 4 3 3 4 5 7 5 3 6 8 7 7 8 7 7 6 6 7 7 7 7 7 8 8 8 9 8 8 9 9 9 9 9 10 10 11 11 11 11 11 11 11 12 13 13 13 14 14 14 15 15 16
6 5 6 5 4 4 4 4 3 2 2 3 1 2 5 5 4 4 5 6 5 5 5 5 5 5 5 6 5 5 4 4 4 4 3 3 3 3 7 5 5 5 5 7 7 8 7 6 7 7 6 6 6 6 7 7 7 8 8 8 8 8 9 8 9 10 9 9 9 9 10 10 10 10 10 11 12 12 13 13 14 14 14 14 14
6 6 5 5 4 4 4 3 3 3 2 2 2 3 4 4 4 5 5 5 5 4 5 6 5 5 5 5 4 4 4 4 4 4 4 4 3 3 5 6 5 4 3 3 6 7 7 5 7 7 7 6 6 7 6 6 6 7 7 7 7 6 6 7 7 7 7 7 7 8 8 9 9 10 10 10 11 11 12 12 13 13 14 14 14
6 6 6 5 4 4 4 4 4 3 2 2 2 3 5 4 4 4 5 6 5 4 4 5 5 4 5 5 4 5 4 3 4 4 4 4 4 4 3 2 5 5 7 7 6 6 6 6 6 6 6 6 6 6 6 6 5 5 6 6 6 5 5 6 6 6 6 7 7 7 7 7 8 9 9 10 10 10 10 11 12 12 12 13 13
6 7 7 5 5 5 4 4 4 4 3 3 2 4 5 5 4 4 6 6 6 5 5 5 6 5 4 4 4 5 4 3 3 3 4 4 4 4 3 3 3 5 6 5 3 4 5 6 6 6 5 5 5 6 5 5 5 5 5 5 5 5 5 5 6 6 5 6 6 6 6 7 7 8 8 9 9 9 9 10 11 11 12 12 12
6 6 5 5 5 5 5 4 4 4 4 4 3 4 5 5 4 5 5 5 6 5 6 6 5 5 5 5 4 4 4 4 3 3 3 4 3 4 4 3 3 3 2 3 2 3 3 4 6 6 5 5 5 6 5 5 5 5 5 5 5 5 5 4 5 5 6 5 5 5 6 6 6 7 8 8 9 9 9 9 10 11 11 11 10
5 6 5 5 5 5 5 5 4 4 4 4 4 4 5 5 5 6 6 6 5 5 5 5 5 6 6 5 5 4 4 4 3 3 3 3 4 4 4 3 3 3 2 2 2 4 3 4 6 5 5 5 6 6 6 6 6 6 6 6 6 5 4 4 4 5 5 5 5 5 5 6 6 6 8 7 8 8 9 9 10 10 10 10 10
5 5 5 5 5 5 5 4 5 5 4 4 4 5 5 5 4 7 7 6 7 6 5 6 5 5 5 5 4 4 4 4 4 3 3 3 3 4 3 3 3 3 3 2 3 4 8 7 5 3 5 5 5 6 6 6 7 6 6 6 6 5 4 4 4 4 4 4 4 4 4 5 5 6 7 7 8 8 8 8 9 9 9 9 9
5 5 5 5 4 5 4 5 5 5 5 5 5 5 6 5 4 3 6 7 8 8 6 6 6 5 5 5 4 4 4 3 3 3 2 4 3 2 3 3 3 5 3 3 4 4 5 6 5 4 3 3 1 6 5 5 6 7 7 6 5 4 5 3 3 2 2 2 2 3 3 4 4 5 6 6 7 8 8 8 8 8 8 8 7
5 5 5 4 4 5 4 4 5 5 5 5 5 5 5 7 6 4 5 7 8 8 7 7 6 6 5 5 4 4 4 3 3 3 4 4 3 2 2 2 3 3 3 3 4 4 3 5 5 3 2 2 2 1 4 3 3 4 5 4 5 5 1 2 2 2 2 2 2 3 2 1 2 3 6 6 7 8 8 8 8 8 7 7 7
5 5 6 5 5 4 4 4 4 5 5 5 5 6 6 5 7 5 5 5 6 7 7 7 7 6 6 5 4 4 3 3 3 3 3 4 4 4 2 2 3 3 3 3 3 3 2 1 1 1 1 2 2 3 3 5 3 4 2 2 4 2 3 3 1 2 2 2 3 4 2 0 1 4 5 5 6 8 9 8 8 8 7 6 7
4 6 6 6 6 5 5 4 5 5 6 6 6 6 8 7 7 8 9 8 6 6 7 8 7 7 6 5 4 4 4 3 3 3 2 1 2 3 4 2 2 3 3 3 3 3 2 2 2 1 1 2 4 1 1 4 3 4 3 3 1 2 3 5 2 4 5 7 7 7 5 3 2 3 5 5 7 9 9 9 8 8 6 7 10
8 6 7 6 6 5 5 5 5 6 6 7 7 7 7 7 6 5 10 10 7 6 7 8 9 7 4 5 5 4 4 4 4 4 4 2 1 3 3 3 2 3 2 2 3 3 2 2 1 1 2 2 2 1 4 8 3 1 5 3 2 1 0 1 4 8 9 9 9 9 8 6 4 4 7 7 9 10 10 9 7 7 9 10 11
8 6 6 7 6 6 6 6 4 5 5 5 6 7 7 8 7 5 2 7 7 8 8 8 5 6 7 5 3 4 4 4 3 4 4 4 3 0 2 3 3 3 3 3 2 2 2 2 2 2 2 2 2 1 1 1 2 3 3 2 2 1 3 6 9 11 11 10 9 9 7 7 6 5 7 9 9 11 10 10 10 11 12 12 11
8 8 7 7 7 7 5 5 5 2 5 4 4 6 7 9 9 8 6 3 5 6 8 2 6 6 5 5 4 2 2 2 2 2 2 3 2 2 3 2 3 3 3 3 2 2 2 2 2 2 2 2 2 2 2 2 3 4 5 3 2 5 8 9 12 12 10 10 9 8 7 6 5 6 8 11 10 11 11 12 12 12 11 10 10
8 8 7 7 7 7 5 7 8 6 7 7 5 6 7 7 8 7 9 8 6 6 5 3 5 10 4 1 3 2 3 3 3 1 1 3 4 3 4 3 3 3 2 3 2 2 2 2 3 2 2 3 3 3 2 2 5 4 4 2 3 8 10 9 10 10 10 9 8 9 7 7 6 6 10 11 11 11 12 12 12 11 10 9 9
8 8 7 7 6 5 8 8 7 6 6 7 8 9 7 8 9 9 9 9 8 6 6 3 7 1 6 5 3 1 3 3 5 2 3 3 4 4 3 3 3 2 2 2 2 2 1 2 2 3 3 2 2 2 2 2 4 5 5 5 6 7 7 8 9 8 8 8 8 8 7 7 8 9 12 11 12 13 13 12 12 11 10 9 9
6 5 6 6 6 6 7 7 7 6 6 6 7 7 8 7 8 9 8 8 10 8 8 4 5 1 2 2 4 5 6 4 5 3 2 1 4 4 4 3 2 2 1 2 3 2 3 2 2 3 3 2 2 2 2 2 3 3 3 4 6 7 7 6 8 8 8 8 8 8 9 9 10 11 12 12 12 13 12 11 11 11 10 9 9
6 5 5 5 6 7 8 8 8 6 3 4 6 9 9 10 7 7 8 7 6 10 10 7 4 5 2 1 1 1 6 8 3 4 3 1 3 3 3 2 3 3 2 2 3 3 3 3 3 2 2 1 2 2 2 3 4 5 8 9 9 9 8 7 8 9 8 8 8 8 11 11 12 11 11 12 12 11 11 10 11 10 10 10 10
7 6 4 4 6 7 7 7 7 7 8 7 7 7 7 5 7 7 6 8 9 9 9 8 9 6 3 2 2 3 3 4 6 6 5 6 3 2 3 3 3 3 2 3 4 3 4 3 3 2 1 1 1 2 2 3 3 4 4 8 8 8 8 8 8 6 7 8 8 8 9 11 11 12 12 11 11 11 10 10 10 10 10 10 10
7 7 9 8 6 6 6 5 5 6 6 5 4 6 9 9 8 6 7 7 7 6 8 9 7 6 5 1 4 4 3 3 5 4 4 5 3 5 4 1 2 2 2 2 3 3 4 4 3 3 2 1 1 2 2 2 3 4 4 7 8 8 8 9 9 9 8 7 8 8 9 9 10 9 10 10 10 9 9 9 9 9 10 10 10
8 7 6 7 7 8 8 8 6 6 4 5 6 9 9 9 10 9 9 9 6 7 8 8 8 6 6 6 4 4 4 3 3 4 3 2 5 7 6 5 6 2 2 3 4 4 4 5 3 3 3 2 2 2 2 3 3 3 4 8 7 8 9 9 10 9 8 8 7 9 9 9 9 8 8 8 9 8 8 8 8 8 9 10 10
7 6 8 8 6 6 7 8 8 7 6 5 9 9 8 8 8 9 9 9 7 7 6 6 6 6 6 6 7 8 7 5 7 6 4 4 5 5 6 6 5 3 2 2 4 4 5 5 4 3 3 3 2 2 2 2 2 3 6 7 7 8 9 9 10 9 8 7 7 8 9 9 9 9 9 9 9 8 8 8 8 8 8 9 10
7 7 8 7 7 7 7 7 7 7 7 6 8 7 7 7 7 8 7 8 7 7 6 7 8 6 7 6 6 6 5 5 7 7 7 6 7 7 7 6 4 4 2 3 2 4 5 6 3 3 3 2 2 2 2 3 3 6 5 6 7 8 9 9 9 8 7 6 6 7 9 9 9 9 9 9 8 8 8 8 8 8 8 8 10
8 9 9 9 8 7 6 7 7 7 7 6 6 7 6 7 7 8 8 9 8 8 7 8 9 8 8 6 5 5 6 3 5 6 3 5 6 7 5 6 5 4 2 3 2 3 4 4 3 3 3 3 2 2 2 2 3 4 5 4 7 8 8 8 7 6 5 5 5 5 7 8 9 8 8 8 7 8 8 9 8 6 5 5 7
9 8 8 7 7 7 6 6 6 7 8 7 7 7 7 7 7 8 8 8 7 9 8 8 8 8 6 6 5 6 5 4 6 6 7 7 6 8 8 4 2 5 1 3 2 3 2 2 3 3 3 3 2 2 2 2 2 4 5 4 5 7 8 8 7 6 5 4 1 0 4 5 7 7 6 7 8 10 10 9 7 6 5 6 6
5 2 1 5 6 5 6 6 6 7 7 7 7 7 6 7 6 7 7 7 8 8 7 8 7 8 7 7 6 5 5 5 6 6 6 7 7 7 9 8 3 2 3 1 1 4 2 1 2 3 3 3 3 3 3 2 3 4 4 4 4 6 8 8 7 7 6 5 5 5 7 7 8 9 9 9 9 8 9 8 7 7 6 6 5
1 0 1 3 5 6 6 7 7 7 7 8 8 8 7 7 6 6 7 5 7 8 7 8 8 9 8 6 6 6 5 6 6 7 6 6 6 6 7 8 8 5 3 5 3 5 3 3 1 2 4 4 3 3 3 3 3 5 4 3 3 4 7 8 8 7 6 5 5 5 6 7 7 8 7 7 7 7 6 6 7 6 6 5 4
7 8 7 3 3 5 6 7 7 7 7 7 7 6 7 7 6 7 7 6 8 9 7 7 7 7 6 8 7 6 6 5 5 6 6 5 6 7 7 9 8 8 7 7 7 6 4 4 4 4 4 4 4 2 3 3 4 5 3 3 3 3 4 7 8 7 7 7 6 6 6 6 7 7 7 6 5 5 7 7 6 6 6 5 4
6 7 7 9 8 7 6 5 6 7 8 8 8 8 7 6 7 7 6 6 7 5 6 6 6 6 6 6 5 5 5 6 7 6 7 7 6 7 7 6 6 8 6 7 6 6 3 3 3 3 4 4 4 3 3 3 3 5 4 4 3 3 4 6 7 7 7 7 7 7 7 7 6 7 6 7 6 6 6 6 6 6 6 6 6
4 4 6 6 7 8 7 5 4 8 8 8 8 7 7 7 6 6 7 6 6 7 5 6 6 6 7 7 6 5 5 6 5 6 6 6 6 6 6 6 6 5 7 5 3 3 4 6 5 2 4 4 4 4 3 3 4 5 4 4 3 3 5 4 6 6 7 7 7 7 7 7 7 7 7 7 6 6 6 6 7 7 8 8 7
7 7 7 7 7 7 6 4 6 7 8 8 8 7 7 6 6 6 6 6 6 7 6 5 5 6 7 7 7 6 6 5 6 6 6 6 6 6 6 7 6 5 6 5 4 3 3 3 4 4 5 5 6 6 4 3 3 6 4 3 3 3 4 3 5 6 7 7 7 7 8 8 8 8 7 7 7 6 6 8 8 8 9 8 8
7 7 7 7 7 6 6 6 3 6 7 7 7 7 7 7 6 7 7 7 7 5 6 6 5 6 7 7 7 6 6 7 6 5 6 6 6 6 5 6 5 5 7 5 5 2 1 1 2 4 3 6 4 5 6 4 4 4 3 3 2 3 3 3 3 5 7 7 8 8 9 8 9 8 9 8 7 7 8 8 9 9 9 9 9
7 8 8 7 7 7 6 6 6 5 4 6 7 7 7 7 7 6 7 8 7 7 6 7 6 6 7 7 6 6 6 6 6 6 6 6 6 6 5 6 7 6 5 6 4 5 5 1 2 1 3 4 4 4 7 7 6 4 5 4 2 3 3 3 3 4 8 8 9 9 8 9 9 9 9 8 8 8 9 9 10 10 10 9 9
7 7 7 7 7 8 7 5 5 6 6 6 6 7 7 8 8 7 7 8 8 8 7 7 7 6 6 6 6 6 5 5 6 6 6 7 6 7 8 6 7 6 5 5 5 5 6 5 3 4 4 4 5 5 6 4 3 4 5 5 4 3 3 3 4 3 7 10 10 10 10 10 10 10 9 9 9 10 10 10 11 11 11 10 10
7 6 6 7 7 8 8 7 6 5 6 6 6 7 8 8 8 8 8 7 7 7 8 7 6 6 7 6 5 6 6 6 6 6 6 6 7 7 7 7 7 7 6 5 5 5 5 6 5 5 4 5 4 1 4 3 5 5 4 3 3 4 4 4 5 4 6 10 10 10 10 11 11 11 10 10 10 11 11 12 12 12 12 12 12
6 6 6 6 7 8 9 9 8 6 7 7 7 7 6 6 8 8 8 8 7 7 7 7 6 7 7 7 6 6 6 7 5 6 5 8 6 6 7 6 6 5 5 6 5 4 5 6 4 2 3 2 1 2 6 6 3 3 3 5 4 4 4 4 4 5 8 9 10 10 10 11 11 11 11 11 11 12 12 13 13 13 13 14 14
5 6 8 7 8 9 8 9 8 8 7 8 8 8 7 6 6 7 7 8 7 7 7 7 7 7 7 7 6 7 7 7 7 6 5 7 6 6 7 6 6 6 6 5 5 5 6 5 5 3 2 4 3 2 5 5 6 4 3 3 2 4 4 5 6 5 4 4 4 5 7 9 11 13 12 11 12 12 12 13 13 14 14 15 15
8 8 7 7 6 8 8 7 8 9 8 7 7 7 6 6 6 7 7 7 7 6 6 6 7 7 7 7 7 7 8 8 8 8 8 7 7 8 8 7 6 6 7 6 5 6 6 5 3 4 4 2 3 4 2 4 3 3 5 4 5 4 4 5 6 3 3 5 6 9 8 8 9 9 11 13 13 14 14 14 15 15 15 16 16
9 8 8 8 7 7 7 8 7 7 7 7 7 7 7 7 7 6 6 7 6 6 5 5 4 3 3 4 5 6 6 6 6 6 7 7 6 7 6 5 7 7 7 6 6 6 6 5 6 5 4 4 2 2 3 4 3 3 4 5 8 6 5 3 5 4 2 4 5 4 6 8 8 10 11 11 13 14 15 15 17 17 17 18 18
8 10 8 9 8 7 6 7 7 7 7 7 7 7 7 7 7 7 7 7 7 6 5 4 4 5 4 3 4 5 5 5 7 8 9 9 8 7 6 6 6 6 5 5 5 5 5 6 5 3 5 5 5 6 6 6 9 7 5 6 5 1 1 2 3 5 5 5 4 3 5 5 5 6 5 6 9 11 13 16 14 17 18 17 16
9 7 8 8 9 9 8 7 7 7 6 5 6 10 9 8 7 6 6 7 7 6 7 6 5 4 4 4 4 6 6 7 7 10 12 11 10 8 8 8 8 7 7 7 6 6 6 7 6 6 6 6 7 8 8 6 2 3 5 6 7 3 2 3 5 4 4 6 5 6 7 5 6 6 5 7 8 7 6 6 8 10 12 14 15
10 9 10 9 9 8 9 9 8 6 6 5 8 8 10 12 8 7 7 7 6 7 8 8 7 6 5 5 5 6 7 8 7 7 6 5 5 5 8 8 8 10 9 7 6 7 7 5 5 3 4 6 7 6 6 4 4 5 4 4 3 3 4 3 6 3 2 5 4 3 6 3 5 6 6 7 7 4 5 7 10 11 14 14 14
8 7 10 10 9 8 7 8 8 7 6 5 8 9 9 12 10 8 6 6 6 7 7 8 6 7 6 5 4 3 4 6 7 7 8 8 7 7 8 8 7 6 2 6 8 6 5 6 8 9 7 6 5 5 5 4 4 4 4 5 5 5 5 5 4 4 0 3 4 2 7 2 3 4 6 6 4 5 6 8 11 12 13 14 15
7 9 9 8 8 7 8 9 8 6 6 5 7 8 9 11 11 8 6 7 8 8 8 8 8 7 5 6 6 3 4 10 8 7 10 11 11 13 13 13 13 10 7 4 2 6 5 5 6 5 5 4 5 5 6 6 5 6 4 4 4 4 4 5 5 1 2 3 2 2 6 2 4 3 5 7 4 4 5 7 11 12 12 13 14
6 4 4 8 7 7 7 8 7 5 4 3 6 7 7 10 11 10 7 8 7 7 7 7 6 6 6 8 8 6 4 6 6 8 8 8 8 9 9 8 8 10 11 11 9 7 6 6 7 5 1 2 4 3 2 3 5 5 5 5 3 4 4 6 4 4 2 4 5 2 3 5 2 3 5 7 3 3 4 8 9 9 10 11 12
3 3 2 5 5 5 6 7 7 6 3 4 2 8 10 12 14 11 8 8 9 8 7 6 5 6 6 6 7 7 6 6 5 8 8 8 8 7 8 8 8 7 8 8 7 5 6 6 7 7 6 5 5 4 3 2 3 3 3 3 4 4 3 1 2 1 2 1 2 3 5 4 1 1 3 4 3 4 3 4 6 7 7 8 9
5 6 6 6 5 5 5 6 7 6 5 8 6 9 14 15 15 9 8 8 10 7 7 6 6 5 5 6 7 7 6 6 7 11 10 9 9 9 8 7 7 8 8 7 10 10 9 7 6 8 7 8 8 7 5 3 3 4 4 4 4 3 2 2 1 3 1 1 2 3 2 3 2 1 3 3 1 3 3 2 6 8 7 7 7
8 9 8 8 8 7 6 5 8 7 7 9 8 5 12 16 13 9 10 7 7 8 7 6 6 6 6 5 6 5 6 7 8 12 11 11 9 10 10 9 7 7 7 7 12 14 16 17 16 14 13 12 12 13 13 12 7 3 4 6 5 3 3 1 2 2 2 4 3 1 1 4 1 1 3 4 3 4 4 4 3 6 8 7 7
8 9 9 10 10 10 10 9 6 8 7 9 10 6 3 8 14 11 9 9 8 8 7 6 5 6 8 13 8 6 6 5 8 10 9 10 9 8 8 9 8 8 5 4 7 8 12 14 15 15 14 13 14 15 16 15 14 7 5 6 0 2 4 2 1 2 4 3 3 2 2 3 3 1 2 3 3 1 2 1 2 2 3 3 4
7 9 11 11 11 10 11 11 15 11 9 10 13 10 9 7 8 10 10 10 10 7 7 7 6 5 6 9 12 8 6 9 12 10 7 6 9 8 9 9 8 7 4 4 6 7 6 7 8 9 11 11 10 9 10 16 16 13 8 5 2 4 3 2 0 2 3 2 3 5 3 2 5 3 2 4 2 2 0 2 2 2 3 3 3
Wind_Direction
141 146 141 152 148 147 149 157 136 123 100 59 66 68 81 92 102 107 109 110 113 117 118 107 113 120 128 129 129 125 118 106 98 98 86 77 98 124 131 129 89 112 113 119 121 116 113 115 126 120 107 111 106 102 104 103 101 98 98 96 93 90 87 84 82 83 84 81 78 77 80 78 74 74 72 71 72 69 68 68 68 67 66 64 62
149 150 159 161 157 151 147 160 164 157 127 168 96 93 98 100 100 105 111 116 111 123 121 112 106 116 121 125 127 125 119 118 112 104 86 81 92 136 134 99 90 103 131 135 131 129 128 136 117 112 112 107 104 109 110 106 105 101 98 96 89 92 90 85 83 79 81 81 81 80 80 80 79 77 74 72 69 69 70 68 66 65 65 65 64
156 160 164 157 159 159 173 155 166 182 185 176 97 100 100 106 122 131 129 115 108 112 116 112 113 113 118 114 113 108 110 109 108 103 93 91 86 86 117 121 123 148 158 155 139 122 116 117 115 119 126 127 135 127 118 111 107 105 99 94 91 87 89 93 95 96 95 95 94 87 80 77 79 81 77 74 72 69 68 69 68 65 64 64 64
161 165 164 158 165 177 174 174 196 162 170 168 100 87 100 106 105 107 107 104 104 90 88 113 109 102 108 104 105 107 109 111 107 97 101 92 84 72 64 72 147 122 88 71 71 102 121 126 123 127 127 131 124 118 115 113 116 114 111 108 108 107 107 107 108 107 101 98 96 94 91 86 82 82 79 75 75 72 68 66 65 64 63 63 63
172 171 164 161 164 177 188 203 196 162 149 145 109 95 99 95 76 90 91 99 98 99 94 101 118 117 108 115 112 113 117 115 114 99 104 99 86 84 58 73 78 92 95 97 95 137 141 143 143 142 145 144 135 130 124 128 128 127 129 128 128 126 120 123 120 114 108 103 96 94 93 87 84 81 79 77 74 74 72 69 66 67 66 64 61
169 167 156 156 165 181 194 207 201 159 143 150 141 121 108 105 116 105 112 109 114 121 123 117 114 118 122 125 116 124 126 126 125 114 109 103 107 89 87 73 76 52 30 101 66 98 95 138 133 135 142 139 138 126 132 135 131 134 138 147 145 142 138 127 121 117 114 107 100 97 96 93 86 82 77 78 76 74 72 72 67 63 63 63 62
174 160 158 162 172 187 195 206 181 152 152 172 156 136 123 130 137 116 100 101 106 119 124 122 129 131 133 131 132 126 123 128 128 129 116 121 101 97 92 94 81 59 59 36 99 104 81 111 125 128 138 144 141 138 140 140 141 144 146 148 148 142 141 134 128 123 121 121 124 115 107 102 99 93 87 83 82 81 76 72 69 63 60 58 59
172 159 159 176 183 190 203 194 175 152 157 167 153 148 133 135 153 136 116 114 119 115 121 125 127 124 127 128 126 127 128 134 137 132 126 103 95 99 103 100 89 95 90 66 64 84 85 79 73 112 149 159 153 157 156 160 161 158 152 148 148 149 151 149 140 132 132 136 131 124 119 115 115 107 100 92 87 87 80 77 72 68 63 59 51
171 165 166 180 194 200 210 196 170 158 163 168 169 152 142 138 137 116 124 136 132 127 126 129 129 122 116 117 119 122 123 120 130 132 104 84 64 50 99 92 100 103 95 89 80 71 66 79 92 94 61 56 125 177 179 164 172 166 165 152 153 155 160 159 163 148 132 132 160 141 136 134 130 126 114 106 98 94 92 84 79 71 61 60 51
163 166 179 188 197 205 212 193 167 156 160 165 165 145 143 145 129 96 118 132 137 136 133 129 125 117 112 116 117 115 121 128 135 133 112 108 145 150 151 110 114 122 118 111 101 89 83 74 77 50 55 88 40 266 218 193 195 168 162 138 92 97 96 109 160 134 137 143 100 97 105 83 157 147 122 119 107 102 97 87 80 71 61 48 37
165 171 183 190 200 222 207 191 164 157 154 158 143 141 137 145 139 115 84 100 130 133 131 128 119 115 116 115 118 119 121 126 116 127 134 155 163 150 148 138 135 138 129 122 112 105 92 91 42 43 5 24 22 43 359 356 11 359 33 337 110 82 25 334 31 137 113 80 102 105 105 204 159 180 148 138 118 107 98 90 82 78 65 48 45
203 187 183 187 197 208 209 182 171 154 155 160 157 151 150 138 138 130 117 114 120 127 128 122 112 110 112 114 116 124 129 137 130 118 114 128 149 148 159 151 150 143 139 127 119 115 103 95 92 77 61 18 32 46 221 293 260 156 273 242 169 142 202 259 175 135 106 103 100 91 75 73 119 176 146 121 111 102 101 97 94 89 82 60 65
200 183 188 187 194 196 194 194 179 162 162 174 167 158 154 145 125 122 129 125 134 140 133 129 122 111 122 130 139 148 144 135 135 135 130 121 4 166 148 150 148 149 140 121 120 119 112 98 104 95 70 67 68 48 202 209 227 194 229 232 227 207 331 286 123 117 110 98 83 76 69 73 95 123 149 128 114 113 104 100 98 85 74 72 68
189 192 194 187 187 194 197 193 167 163 155 154 152 145 137 126 137 107 110 134 142 156 149 133 124 141 139 129 114 108 118 133 144 145 134 131 145 132 53 143 155 157 140 132 131 140 131 124 118 87 69 71 68 64 34 117 147 161 232 125 218 168 150 124 122 111 99 89 82 72 63 54 75 109 137 124 115 117 107 94 84 82 73 68 69
196 190 191 192 192 193 190 92 74 84 112 125 153 161 156 151 155 148 135 119 133 155 165 144 137 138 115 111 139 120 130 136 82 100 140 141 132 130 124 144 150 130 139 137 143 144 139 128 109 105 94 76 72 76 95 113 123 121 126 163 170 133 124 119 109 96 92 85 81 74 70 72 55 96 130 128 124 110 102 101 93 82 79 74 72
197 190 192 189 189 190 113 131 183 181 165 147 144 205 164 161 149 158 143 140 155 172 185 191 149 141 149 194 146 147 153 190 147 137 120 158 168 154 157 161 143 130 130 146 148 144 128 102 110 109 93 90 86 91 100 121 127 134 145 162 132 119 126 126 100 96 94 94 87 76 65 70 87 101 121 128 119 111 109 103 97 93 86 85 82
203 195 185 188 182 149 132 185 187 180 169 154 165 186 186 171 162 157 163 153 161 164 192 199 192 315 140 120 90 201 219 145 136 151 154 147 148 150 147 150 145 147 143 137 139 135 139 94 109 106 92 79 64 62 71 87 113 128 133 130 135 150 130 106 108 100 97 90 85 83 79 83 89 105 109 112 113 115 111 108 106 100 95 91 87
202 199 186 172 169 144 160 179 178 188 178 175 172 163 175 183 185 166 164 169 156 164 177 213 209 197 296 156 169 178 173 172 149 159 68 133 155 151 164 161 148 190 169 153 147 145 150 124 118 107 99 66 68 75 75 88 90 83 79 93 82 75 85 111 107 109 105 106 104 98 91 93 98 105 107 113 118 115 112 112 108 103 99 93 88
197 194 191 176 161 147 175 189 181 170 179 190 178 178 184 185 175 167 169 147 151 167 176 180 187 255 250 40 121 141 154 141 164 110 169 204 140 138 141 160 160 191 176 162 153 152 136 129 127 111 78 65 68 68 74 73 80 82 92 88 82 79 74 81 106 112 118 120 117 108 99 98 101 106 108 109 108 108 106 104 100 103 101 96 91
190 186 160 189 174 158 173 185 172 172 180 196 195 169 184 181 175 171 153 158 173 169 173 167 180 201 203 242 84 110 97 48 137 158 152 167 190 103 102 150 153 170 164 150 156 148 132 136 148 127 86 51 44 71 81 78 78 77 80 92 90 85 83 81 77 86 115 117 116 112 107 105 105 105 102 99 99 99 100 99 99 100 101 99 94
200 181 187 190 166 153 154 165 186 189 193 192 179 189 186 168 166 160 168 174 180 168 158 177 190 191 157 89 102 111 74 73 121 90 135 154 166 182 171 130 120 146 129 146 152 151 152 156 167 133 122 99 67 82 85 87 85 89 95 97 97 97 97 93 89 86 85 108 115 116 117 120 123 120 112 111 103 101 101 100 101 101 100 101 99
198 194 180 168 166 158 152 152 172 191 201 212 195 207 188 176 175 176 178 179 176 164 175 179 192 181 179 153 137 116 81 82 107 113 102 105 161 184 184 168 175 162 120 142 148 153 155 162 163 144 143 145 137 107 96 101 98 94 108 108 107 109 108 105 99 92 89 96 115 123 125 126 125 126 132 128 109 107 109 110 109 107 107 106 103
202 191 188 186 169 159 163 165 168 173 174 180 203 209 185 180 177 177 178 181 179 173 167 176 178 172 168 173 163 168 167 166 177 181 147 146 137 160 171 191 181 155 181 141 160 166 167 172 163 158 157 153 143 127 122 122 107 117 124 119 119 117 114 113 109 108 112 121 130 134 133 129 127 128 127 122 124 123 122 119 117 115 114 111 108
198 200 204 192 183 182 174 164 166 167 176 190 219 210 183 178 172 177 183 188 179 173 169 166 177 183 185 182 176 179 162 162 173 175 170 162 155 159 173 166 141 186 140 129 166 174 174 184 179 162 159 150 139 132 128 115 120 126 122 130 130 128 125 122 121 120 123 134 137 144 140 135 133 133 133 136 136 131 126 128 125 124 124 122 115
202 201 208 189 188 188 178 173 171 173 166 185 220 236 184 182 179 178 178 181 183 179 177 183 177 180 190 193 177 175 189 156 143 148 90 112 138 139 160 174 176 171 171 157 163 190 193 191 166 167 154 150 145 142 127 117 124 127 129 135 138 135 133 132 131 133 138 148 162 162 143 143 143 140 135 136 145 148 130 99 74 63 66 100 116
199 203 201 192 194 192 183 181 178 169 168 184 185 231 205 183 179 179 183 188 177 181 187 181 185 188 171 166 185 186 175 156 145 142 148 136 150 156 150 159 122 173 80 178 134 170 205 173 166 151 151 154 150 138 124 129 130 138 138 140 145 140 139 136 136 140 144 147 127 101 150 151 157 151 138 121 104 100 101 103 103 99 92 84 84
264 315 50 196 201 192 186 182 183 178 165 180 186 209 228 179 178 179 182 176 182 178 183 173 178 178 176 183 179 179 173 161 155 167 162 167 158 158 148 153 152 147 174 126 164 220 162 138 169 160 161 154 155 153 144 148 149 149 138 136 149 152 140 139 139 140 137 124 100 85 76 75 80 91 101 108 114 116 118 119 124 120 114 104 94
44 119 335 269 226 204 194 187 186 183 181 186 189 192 200 202 170 175 179 173 169 188 182 177 182 181 184 174 163 189 176 166 172 164 173 157 153 155 155 158 155 166 158 194 217 232 176 161 215 193 168 166 165 157 150 147 164 159 144 141 151 159 151 147 146 140 137 131 120 112 108 106 110 113 117 123 131 137 129 130 140 142 136 133 117
168 168 172 154 264 251 214 195 186 184 180 181 182 186 192 191 175 174 182 174 173 191 175 180 182 174 173 177 189 182 180 166 161 167 157 147 163 168 171 173 173 153 167 200 218 209 211 201 177 197 180 166 160 160 152 170 174 166 148 150 161 172 170 156 148 144 142 140 136 138 138 139 139 142 145 144 146 153 155 153 159 162 164 161 144
170 181 175 172 172 208 247 232 187 179 185 178 176 174 187 194 183 185 179 173 176 177 181 172 164 160 166 175 179 184 167 168 176 168 161 160 162 176 187 191 173 168 164 182 219 193 175 217 211 160 186 174 154 156 159 167 192 164 160 158 172 183 187 168 155 154 153 151 150 152 157 161 165 168 169 170 172 171 170 178 180 186 188 187 176
178 187 174 171 177 170 185 236 221 189 186 180 180 185 179 183 184 172 171 178 170 179 178 167 160 157 164 178 183 183 168 174 166 160 159 158 172 180 192 185 191 181 165 165 182 226 163 187 218 222 165 171 164 151 159 166 188 163 169 169 183 196 193 180 173 169 169 166 164 167 175 180 186 188 190 187 182 187 192 202 205 208 210 203 191
185 183 180 173 170 169 151 158 239 203 186 184 181 181 173 183 170 165 168 167 174 178 171 168 153 167 166 174 181 181 172 163 163 165 165 172 163 173 186 192 186 154 151 155 170 172 207 202 189 186 170 153 166 163 170 170 182 175 171 176 182 198 198 188 194 193 188 185 181 187 193 192 196 200 202 198 198 201 210 215 217 221 221 216 203
185 179 179 169 156 158 155 151 144 266 189 177 174 170 173 174 172 168 163 169 175 179 166 166 166 166 176 178 182 184 165 166 172 161 165 165 163 170 176 176 165 162 159 164 163 147 63 316 175 180 163 144 167 184 167 175 176 176 163 173 177 197 202 199 209 211 210 202 198 202 207 205 202 207 206 206 206 211 217 225 228 232 233 227 215
188 184 176 166 157 151 162 163 174 164 254 180 170 167 169 165 166 165 165 170 175 174 172 176 175 183 179 180 177 175 177 164 163 167 167 161 167 161 174 182 189 175 181 153 168 151 176 162 147 52 154 193 161 188 185 176 184 175 186 183 179 195 205 205 214 223 219 215 209 210 214 217 213 214 213 210 217 219 225 229 234 237 241 239 232
198 190 174 166 156 151 156 164 170 177 192 208 171 170 170 168 165 170 174 174 174 172 181 185 180 172 176 183 176 169 168 160 169 169 163 169 165 171 179 183 185 182 187 174 140 172 170 205 171 171 184 184 199 185 194 190 167 177 183 195 191 192 207 200 215 231 225 223 219 215 216 220 223 221 217 217 218 223 228 233 234 237 239 243 240
189 190 174 166 162 155 156 167 187 185 180 200 176 180 177 170 167 171 178 183 180 177 180 178 173 174 179 177 179 168 171 173 165 168 172 165 167 174 177 188 187 178 184 176 181 159 176 174 204 194 175 168 213 159 160 149 162 180 202 184 193 210 207 207 217 228 227 226 227 224 223 225 227 226 222 220 223 225 229 232 235 236 237 236 237
186 173 177 169 162 164 168 172 179 182 185 192 180 186 182 173 171 173 178 181 182 181 179 177 173 174 175 189 176 168 172 176 167 170 173 172 170 165 177 181 187 182 171 180 177 155 152 196 183 171 140 175 163 146 166 161 160 173 177 201 206 210 218 225 229 235 242 237 233 231 231 234 237 237 233 229 229 231 232 234 235 236 236 236 235
184 188 179 175 174 179 177 175 173 173 182 196 186 184 177 173 173 175 175 179 183 179 179 173 175 176 181 188 174 171 174 182 186 176 171 174 165 170 174 178 183 164 166 169 176 175 186 194 163 145 182 168 168 163 187 179 156 167 192 209 221 213 209 230 228 227 223 225 217 223 233 236 238 240 239 236 236 239 240 240 241 240 239 240 240
191 188 188 179 182 181 184 175 175 172 181 189 181 177 172 168 172 173 176 182 179 178 175 172 176 184 185 184 180 179 186 191 180 176 170 180 178 182 180 177 177 165 168 170 163 172 189 180 152 160 151 196 162 170 166 176 160 174 178 175 240 216 215 219 245 215 218 236 237 229 230 231 236 237 236 235 238 239 239 240 241 241 242 241 241
183 183 179 180 186 184 183 184 174 164 171 180 179 179 173 171 170 177 180 181 180 179 170 173 165 148 143 163 184 192 194 185 181 174 170 179 182 185 191 174 173 181 188 172 165 169 176 184 188 171 168 154 145 67 98 142 165 235 206 185 213 213 215 225 237 246 223 217 241 238 234 239 245 248 251 249 244 239 238 242 242 242 240 239 239
187 181 177 179 165 167 172 168 158 155 172 180 179 177 173 170 169 172 178 181 178 176 154 113 99 106 112 137 154 174 178 159 151 151 169 182 178 180 184 168 164 179 185 171 175 165 179 180 189 149 148 153 170 147 147 178 200 204 160 177 225 167 166 241 243 211 217 230 240 236 241 208 235 236 231 239 240 232 236 236 248 245 243 244 244
201 183 162 171 167 164 164 160 150 158 168 166 176 181 176 170 172 173 173 177 174 160 136 117 109 115 118 111 114 117 107 106 131 165 182 184 187 186 172 169 169 170 172 172 179 188 172 186 187 151 154 192 183 190 191 201 106 101 133 162 208 168 158 261 270 228 188 200 224 245 248 186 209 245 220 242 252 209 232 218 227 237 241 239 240
198 181 164 167 168 166 169 160 155 162 159 159 165 183 187 172 165 168 174 174 164 150 145 138 134 127 99 84 84 90 98 100 97 94 106 124 163 196 186 173 179 176 169 168 187 177 187 166 85 88 223 200 206 191 200 156 159 162 152 164 166 160 196 207 260 320 225 189 202 239 273 154 183 240 245 239 251 233 226 239 243 236 240 242 238
193 184 176 170 164 166 168 156 152 159 162 162 172 185 184 177 171 169 164 152 147 139 136 133 132 133 122 101 74 74 93 112 114 97 81 77 85 83 77 64 67 64 108 179 172 183 186 143 175 200 193 206 186 181 184 167 163 150 162 164 171 180 189 206 223 239 302 173 165 212 272 121 192 228 264 257 250 240 240 245 242 238 238 239 238
175 179 181 158 156 161 162 151 154 157 160 170 184 189 183 177 167 143 134 134 131 132 130 134 137 136 132 117 101 61 89 111 108 108 110 99 88 87 82 73 60 61 68 77 191 207 168 164 152 161 190 169 164 200 186 181 159 170 166 186 198 203 202 224 229 234 233 181 160 200 276 263 150 217 248 262 254 247 259 242 242 241 240 239 240
157 155 163 154 145 154 158 144 139 133 136 161 183 179 168 154 137 119 115 108 102 103 110 116 118 127 135 131 120 109 98 107 113 111 106 102 97 81 69 56 51 45 47 47 63 105 137 151 144 132 127 145 141 127 137 133 145 171 159 200 171 194 195 225 237 232 203 168 186 174 285 267 173 207 253 271 274 259 251 260 262 262 255 253 252
88 121 144 140 129 122 117 117 118 100 41 9 175 148 139 131 117 109 103 93 98 91 83 88 93 101 105 102 110 119 122 115 118 118 107 100 90 82 74 64 57 49 41 23 18 46 80 90 99 103 106 87 91 89 83 81 97 96 126 131 161 168 188 244 262 298 281 222 186 147 246 278 26 225 251 278 318 298 288 327 350 320 299 282 273
60 66 46 43 68 86 100 107 106 83 48 53 125 143 135 127 113 105 104 99 103 90 84 74 76 71 80 97 113 112 119 115 119 115 117 115 100 89 80 74 65 56 50 37 41 53 63 71 74 89 86 80 78 78 65 65 84 102 108 104 78 53 66 28 318 353 335 75 221 199 241 270 21 307 300 320 309 285 326 44 9 8 354 327 301
66 53 51 53 41 34 31 69 99 84 66 53 77 128 138 125 109 109 106 95 85 86 79 74 70 74 70 75 84 108 100 94 118 124 133 121 104 103 98 85 77 71 56 41 49 65 79 84 87 89 90 86 79 72 63 55 59 79 85 59 36 3 58 71 335 349 338 3 21 315 329 286 334 354 304 298 317 303 315 4 359 9 7 7 349
47 62 60 57 47 45 41 24 30 84 72 56 61 56 65 120 124 120 116 104 94 92 89 65 64 59 63 73 84 84 95 90 107 117 129 118 111 115 112 110 101 91 73 65 87 74 78 84 82 79 74 71 68 62 54 51 48 46 79 80 89 103 72 69 359 345 301 346 25 348 253 257 313 286 301 293 305 248 324 352 331 354 12 38 27
41 65 65 60 53 43 45 40 25 36 57 50 50 51 60 76 104 116 118 114 108 103 102 88 71 72 63 57 63 71 87 96 90 88 87 108 119 127 127 115 109 105 114 104 102 102 80 62 52 60 52 49 52 52 50 48 45 45 47 61 54 57 100 66 53 334 342 313 17 347 344 308 344 349 357 330 313 306 41 266 340 358 2 2 4